Regional Weather Roundup
Issued by NWS Newport/Morehead, NC

Current Version | Previous Version | Text Only | Print | Product List | Glossary On
Versions: 1 2 3 4 5 6 7 8 9 10 11 12 13 14 15 16 17 18 19 20 21 22 23 24 25 26 27 28 29 30 31 32 33 34 35 36 37 38 39 40 41 42 43 44 45 46 47 48 49 50
000
ASUS42 KMHX 131622
RWRMHX
WEATHER ROUNDUP FOR EASTERN NORTH CAROLINA
NATIONAL WEATHER SERVICE NEWPORT/MOREHEAD CITY NC
1200 PM EDT SUN JUL 13 2014

NOTE: "FAIR" INDICATES FEW OR NO CLOUDS BELOW 12,000 FEET
WITH NO SIGNIFICANT WEATHER AND/OR OBSTRUCTIONS TO VISIBILITY

NCZ015>017-031-032-045>047-102-103-131700-
NORTH COAST

CITY           SKY/WX    TMP DP  RH WIND       PRES   REMARKS
EDENTON        MOSUNNY   83  72  67 SW3       30.13F
ELIZABETH CITY MOSUNNY   84  72  67 S8        30.13F
KITTY HAWK     MOSUNNY   83  73  70 E6        30.13F
MANTEO         NOT AVBL

$$

NCZ045>047-081-094-103-104-131700-
CENTRAL COAST

CITY           SKY/WX    TMP DP  RH WIND       PRES   REMARKS
FRISCO         SUNNY     86  71  60 SE7       30.16R
SWANQUARTER      N/A     86 N/A N/A S5        30.12S

$$

NCZ095-097-098-100-101-131700-
SOUTHERN COAST

CITY           SKY/WX    TMP DP  RH WIND       PRES   REMARKS
BEAUFORT       MOSUNNY   84  73  69 SW8       30.15S
CEDAR ISLAND     N/A     82 N/A N/A E7        30.18F
JACKSONVILLE   MOSUNNY   85  71  63 VRB5      30.14F
NEWPORT        NOT AVBL
PINEY ISLAND   MOSUNNY   86  74  67 CALM      30.14F
WILMINGTON     PTSUNNY   88  71  57 W6        30.15S


$$

NCZ011>013-027>030-043-044-078>080-089-090>093-098-131700-
COASTAL PLAIN

CITY           SKY/WX    TMP DP  RH WIND       PRES   REMARKS
AHOSKIE        MOSUNNY   84  73  70 S6        30.13S
CLINTON        MOSUNNY   86  73  65 SW5       30.14F
ELIZABETHTOWN  MOSUNNY   86  70  58 SE6       30.14F
GOLDSBORO      MOSUNNY   84  73  70 VRB5      30.13S
GREENVILLE     MOSUNNY   86  72  62 SW5       30.15S
HAVELOCK       MOSUNNY   86  72  62 S5        30.15F
KENANSVILLE    MOSUNNY   83  69  62 CALM      30.16S
KINSTON        MOSUNNY   84  70  61 W3        30.16S
NEW BERN       MOSUNNY   88  71  57 VRB6      30.15F
RICHLANDS      PTSUNNY   88  72  58 SW3       30.14F
ROANOKE RAPIDS NOT AVBL
ROCKY MOUNT    SUNNY     86  72  62 VRB7      30.13F
WASHINGTON     MOSUNNY   83  71  68 CALM      30.14F
WHITEVILLE     PTSUNNY   85  71  64 W5        30.15S

$$

AMZ130-135-150-152-154-156-158-170-250-252-270-ANZ085-086-088-633-658-670-131700-
MARINE OBSERVATIONS

STATION/POSITION TIME  TEMP    WIND        PRES    WAVE   SWELL
                       AIR SEA DIR/SP/G            HT/PER HT/PER
                 (UTC) (F)     (DEG/KT/KT) (MB)    (FT/S) (FT/S)
CHESAPEAKE LIGHT NOT AVBL
BUOY 44014       1600   76 77  190/  4/  4 1020.6    2/ 7   2/ 7
DUCK             1600   79 72  130/  7/  8 1019.7
2E DUCK          1600                        N/A     1/ 7
OREGON INLET     1600   79 79  110/  8/  9 1020.7
BUOY 44095       1600      77                N/A     2/ 7
HATTERAS CG      1600   81 81  160/  5/  6 1021.6
DIAMOND BUOY     1600             CALM     1021.0    2/ 7
17S OCRACOKE INL NOT AVBL
CAPE LOOKOUT     1600   81     210/  5/  7 1021.1
BEAUFORT LAB     1600   81 82  200/  8/ 10 1020.7
30 SE NEW RIVER  1600   80 84  110/  2/  2 1021.7    2/ 8   2/ 8
5 SE WRIGHTSVILL 1600   77 83  130/  6/  8 1021.9
FRYING PAN BUOY  NOT AVBL
BUOY 41001       NOT AVBL
BUOY 41002       1521   81 84  310/  4/  6 1022.6    2/ 8   2/ 8
BUOY 41004       1600   77 82  220/ 10/ 10 1021.3    2/ 7   2/ 7

$$



USA.gov is the U.S. government's official web portal to all federal, state and local government web resources and services.